EW0259 Weather Reports


time (UTC)temp
C
wind
direction
speed
KPH
gust
KPH
rain 1hr
cm
rain 24hr
cm
rain mn
cm
humidity
%
barometer
mb
20260508220233 15 266 3.2 14.5 0.00 0.00 0.00 56 1022.9
20260508215800 15 277 6.4 14.5 0.00 0.00 0.00 55 1022.9
20260508215237 15 29 3.2 19.3 0.00 0.00 0.00 55 1022.9
20260508214724 15 276 3.2 19.3 0.00 0.00 0.00 57 1022.9
20260508214232 15 298 8.0 16.1 0.00 0.00 0.00 57 1022.9
20260508213740 15 327 3.2 17.7 0.00 0.00 0.00 57 1022.8
20260508213228 15 246 8.0 17.7 0.00 0.00 0.00 57 1022.8
20260508212735 15 330 4.8 17.7 0.00 0.00 0.00 56 1022.9
20260508212223 15 279 1.6 12.9 0.00 0.00 0.00 58 1022.8
20260508211735 15 259 4.8 12.9 0.00 0.00 0.00 57 1022.7
20260508211223 15 286 3.2 9.7 0.00 0.00 0.00 56 1022.7
20260508210811 15 183 1.6 8.0 0.00 0.00 0.00 57 1022.6
20260508210308 15 304 3.2 12.9 0.00 0.00 0.00 58 1022.6
20260508205723 15 259 3.2 11.3 0.00 0.00 0.00 56 1022.6
20260508205230 15 115 1.6 11.3 0.00 0.00 0.00 56 1022.5
20260508204758 15 246 1.6 11.3 0.00 0.00 0.00 57 1022.4
20260508204234 15 24 1.6 11.3 0.00 0.00 0.00 57 1022.3
20260508203722 15 207 1.6 6.4 0.00 0.00 0.00 58 1022.3
20260508203230 14 99 3.2 6.4 0.00 0.00 0.00 58 1022.4
20260508202737 14 103 1.6 8.0 0.00 0.00 0.00 59 1022.5
20260508202225 14 281 4.8 9.7 0.00 0.00 0.00 60 1022.4
20260508201753 13 233 3.2 16.1 0.00 0.00 0.00 60 1022.5
20260508201230 14 288 4.8 16.1 0.00 0.00 0.00 59 1022.5
20260508200722 14 65 4.8 12.9 0.00 0.00 0.00 58 1022.6
20260508200230 14 9 3.2 6.4 0.00 0.00 0.00 57 1022.6
20260508195756 14 9 3.2 11.3 0.00 0.00 0.00 59 1022.5
20260508195253 14 19 6.4 11.3 0.00 0.00 0.00 59 1022.4
20260508194809 14 360 4.8 9.7 0.00 0.00 0.00 58 1022.3
20260508194225 14 21 3.2 12.9 0.00 0.00 0.00 58 1022.3
20260508193733 14 284 6.4 19.3 0.00 0.00 0.00 59 1022.2
20260508193241 14 336 6.4 19.3 0.00 0.00 0.00 59 1022.2
20260508192808 14 130 3.2 9.7 0.00 0.00 0.00 61 1022.3
20260508192736 14 130 3.2 9.7 0.00 0.00 0.00 61 1022.3
20260508192306 13 318 3.2 11.3 0.00 0.00 0.00 63 1022.2
20260508192232 13 318 3.2 11.3 0.00 0.00 0.00 63 1022.2
20260508191740 13 261 4.8 16.1 0.00 0.00 0.00 62 1022.2
20260508191307 13 338 1.6 16.1 0.00 0.00 0.00 66 1022.2
20260508191236 13 338 1.6 16.1 0.00 0.00 0.00 66 1022.2
20260508190800 12 248 1.6 16.1 0.00 0.00 0.00 67 1022.3
20260508190237 12 314 1.6 16.1 0.00 0.00 0.00 68 1022.3
20260508185803 12 158 3.2 8.0 0.00 0.00 0.00 67 1022.3
20260508185240 12 83 1.6 8.0 0.00 0.00 0.00 68 1022.3
20260508184728 12 40 3.2 11.3 0.00 0.00 0.00 68 1022.3
20260508184236 12 100 3.2 11.3 0.00 0.00 0.00 67 1022.2
20260508183728 12 293 1.6 11.3 0.00 0.00 0.00 66 1022.4
20260508183255 12 293 1.6 9.7 0.00 0.00 0.00 67 1022.1
20260508182807 12 320 3.2 8.0 0.00 0.00 0.00 67 1022.2
20260508182306 12 303 0.0 4.8 0.00 0.00 0.00 68 1022.2
20260508181724 12 169 0.0 11.3 0.00 0.00 0.00 69 1021.9
20260508181232 12 314 1.6 8.0 0.00 0.00 0.00 69 1021.9
20260508180800 12 254 3.2 8.0 0.00 0.00 0.00 69 1021.8
20260508180236 12 109 1.6 8.0 0.00 0.00 0.00 71 1021.8
20260508175803 12 17 1.6 6.4 0.00 0.00 0.00 72 1021.8
20260508175239 11 325 1.6 6.4 0.00 0.00 0.00 72 1021.8
20260508174727 11 272 3.2 11.3 0.00 0.00 0.00 72 1021.8
20260508174235 12 302 4.8 11.3 0.00 0.00 0.00 72 1021.8
20260508173723 12 320 1.6 4.8 0.00 0.00 0.00 72 1021.6
20260508173231 12 54 1.6 6.4 0.00 0.00 0.00 72 1021.5
20260508172738 12 87 1.6 6.4 0.00 0.00 0.00 72 1021.4
20260508172230 12 5 3.2 6.4 0.00 0.00 0.00 72 1021.2
20260508171738 11 250 1.6 9.7 0.00 0.00 0.00 74 1021.1
20260508171306 11 184 4.8 9.7 0.00 0.00 0.00 74 1021.1
20260508170722 11 196 3.2 8.0 0.00 0.00 0.00 74 1021.2
20260508170309 11 69 1.6 4.8 0.00 0.00 0.00 75 1021.1
20260508165805 11 75 1.6 4.8 0.00 0.00 0.00 75 1021.0
20260508165733 11 75 1.6 4.8 0.00 0.00 0.00 75 1021.0
20260508165221 11 123 1.6 6.4 0.00 0.00 0.00 75 1020.9
20260508164729 11 106 1.6 4.8 0.00 0.00 0.00 77 1020.8
20260508164237 11 136 0.0 4.8 0.00 0.00 0.00 76 1020.8
20260508163725 11 65 1.6 6.4 0.00 0.00 0.00 76 1020.9
20260508163232 11 113 1.6 6.4 0.00 0.00 0.00 76 1020.6
20260508162759 11 171 1.6 6.4 0.00 0.00 0.00 76 1020.8
20260508162236 11 355 1.6 6.4 0.00 0.00 0.00 76 1020.7
20260508161724 11 168 1.6 4.8 0.00 0.00 0.00 75 1020.7
20260508161236 11 59 3.2 12.9 0.00 0.00 0.00 77 1020.6
20260508160724 11 121 3.2 12.9 0.00 0.00 0.00 77 1020.6
20260508160232 11 118 1.6 3.2 0.00 0.00 0.00 77 1020.5
20260508155739 11 174 1.6 4.8 0.00 0.00 0.00 77 1020.7
20260508155226 11 82 1.6 9.7 0.00 0.00 0.00 77 1020.6
20260508154754 11 59 1.6 9.7 0.00 0.00 0.00 78 1020.5
20260508154231 11 61 0.0 9.7 0.00 0.00 0.00 79 1020.6
20260508153739 11 92 3.2 9.7 0.00 0.00 0.00 79 1020.7
20260508153227 11 188 3.2 11.3 0.00 0.00 0.00 78 1020.9
20260508152734 10 90 1.6 11.3 0.00 0.00 0.00 80 1021.1
20260508152226 10 167 0.0 4.8 0.00 0.00 0.00 81 1021.0
20260508151734 10 181 1.6 4.8 0.00 0.00 0.00 80 1021.1
20260508151222 10 132 0.0 4.8 0.00 0.00 0.00 83 1021.1
20260508150730 10 92 1.6 4.8 0.00 0.00 0.00 83 1021.0
20260508150238 10 56 0.0 4.8 0.00 0.00 0.00 85 1020.9
20260508145805 10 180 1.6 6.4 0.00 0.00 0.00 86 1020.8
20260508145306 10 122 0.0 4.8 0.00 0.00 0.00 87 1020.8
20260508144739 9 172 1.6 4.8 0.00 0.00 0.00 87 1020.8
20260508144226 9 114 0.0 3.2 0.00 0.00 0.00 89 1020.8
20260508143734 9 101 0.0 3.2 0.00 0.00 0.00 90 1020.7
20260508143222 8 49 1.6 3.2 0.00 0.00 0.00 90 1020.6
20260508142808 8 46 0.0 3.2 0.00 0.00 0.00 91 1020.4
20260508142306 8 82 0.0 3.2 0.00 0.00 0.00 91 1020.4
20260508142233 8 82 0.0 3.2 0.00 0.00 0.00 91 1020.4
20260508141801 8 69 0.0 3.2 0.00 0.00 0.00 91 1020.3
20260508141729 8 69 0.0 3.2 0.00 0.00 0.00 91 1020.3
20260508141237 8 149 0.0 3.2 0.00 0.00 0.00 92 1020.3
20260508140805 8 151 0.0 3.2 0.00 0.00 0.00 92 1020.1
20260508140733 8 151 0.0 3.2 0.00 0.00 0.00 92 1020.1
20260508140224 8 140 0.0 3.2 0.00 0.00 0.00 92 1019.9
20260508135807 8 5 0.0 0.0 0.00 0.00 0.00 92 1019.8
20260508135306 8 5 0.0 0.0 0.00 0.00 0.00 93 1019.7
20260508134725 8 5 0.0 0.0 0.00 0.00 0.00 93 1019.6
20260508134233 7 5 0.0 0.0 0.00 0.00 0.00 93 1019.5
20260508133721 7 5 0.0 0.0 0.00 0.00 0.00 92 1019.5
20260508133228 7 5 0.0 0.0 0.00 0.00 0.00 92 1019.5
20260508132735 7 5 0.0 0.0 0.00 0.00 0.00 93 1019.4
20260508132306 7 5 0.0 0.0 0.00 0.00 0.00 93 1019.3
20260508131739 7 346 0.0 0.0 0.00 0.00 0.00 92 1019.2
20260508131306 7 346 0.0 0.0 0.00 0.00 0.00 92 1019.2
20260508130723 7 346 0.0 0.0 0.00 0.00 0.00 93 1019.2
20260508130231 8 346 0.0 0.0 0.00 0.00 0.00 93 1019.1
20260508125738 8 346 0.0 0.0 0.00 0.00 0.00 94 1019.0
20260508125230 7 346 0.0 0.0 0.00 0.00 0.00 93 1019.0
20260508124758 7 346 0.0 0.0 0.00 0.00 0.00 94 1019.0
20260508124726 7 346 0.0 0.0 0.00 0.00 0.00 94 1019.0
20260508124254 7 346 0.0 0.0 0.00 0.00 0.00 94 1018.9
20260508124222 7 346 0.0 0.0 0.00 0.00 0.00 94 1018.9
20260508123806 7 346 0.0 0.0 0.00 0.00 0.00 94 1018.9
20260508123227 7 346 0.0 0.0 0.00 0.00 0.00 93 1018.9
20260508122754 7 346 0.0 0.0 0.00 0.00 0.00 93 1018.9
20260508122722 7 346 0.0 0.0 0.00 0.00 0.00 93 1018.9
20260508122310 7 346 0.0 0.0 0.00 0.00 0.00 93 1018.8
20260508122238 7 346 0.0 0.0 0.00 0.00 0.00 93 1018.8
20260508121726 7 346 0.0 0.0 0.00 0.00 0.00 93 1018.8
20260508121234 7 346 0.0 0.0 0.00 0.00 0.00 92 1018.8
20260508120722 7 346 0.0 0.0 0.00 0.00 0.00 92 1018.7
20260508120230 7 346 0.0 0.0 0.00 0.00 0.00 92 1018.7
20260508115757 7 346 0.0 0.0 0.00 0.00 0.00 93 1018.6
20260508115234 7 346 0.0 0.0 0.00 0.00 0.00 93 1018.6
20260508114802 7 346 0.0 0.0 0.00 0.00 0.00 93 1018.6
20260508114239 7 346 0.0 0.0 0.00 0.00 0.00 93 1018.5
20260508113727 7 345 0.0 0.0 0.00 0.00 0.00 92 1018.5
20260508113235 7 346 0.0 0.0 0.00 0.00 0.00 93 1018.3
20260508112726 7 346 0.0 0.0 0.00 0.00 0.00 93 1018.2
20260508112234 7 346 0.0 0.0 0.00 0.00 0.00 93 1018.2
20260508111722 7 346 0.0 0.0 0.00 0.00 0.00 92 1018.2
20260508111310 7 346 0.0 0.0 0.00 0.00 0.00 92 1017.9
20260508110727 7 346 0.0 0.0 0.00 0.00 0.00 92 1017.9
20260508110235 7 346 0.0 0.0 0.00 0.00 0.00 91 1017.8
20260508105721 7 346 0.0 0.0 0.00 0.00 0.00 91 1017.7
20260508105309 7 346 0.0 0.0 0.00 0.00 0.00 91 1017.7
20260508104724 7 346 0.0 0.0 0.00 0.00 0.00 91 1017.7
20260508104232 7 346 0.0 0.0 0.00 0.00 0.00 92 1017.6
20260508103800 7 346 0.0 0.0 0.00 0.00 0.00 92 1017.6
20260508103256 7 346 0.0 0.0 0.00 0.00 0.00 92 1017.6
20260508102752 7 346 0.0 0.0 0.00 0.00 0.00 92 1017.6
20260508102229 7 346 0.0 0.0 0.00 0.00 0.00 92 1017.5
20260508101756 7 346 0.0 0.0 0.00 0.00 0.00 92 1017.6
20260508101233 7 346 0.0 0.0 0.00 0.00 0.00 92 1017.6
20260508100725 7 346 0.0 0.0 0.00 0.00 0.00 92 1017.5
20260508100309 7 346 0.0 0.0 0.00 0.00 0.00 91 1017.6
20260508095804 7 346 0.0 0.0 0.00 0.00 0.00 91 1017.5
20260508095732 7 346 0.0 0.0 0.00 0.00 0.00 91 1017.5
20260508095224 7 346 0.0 0.0 0.00 0.00 0.00 90 1017.5
20260508094812 7 346 0.0 0.0 0.00 0.00 0.00 90 1017.5
20260508094228 7 346 0.0 0.0 0.00 0.00 0.00 91 1017.4
20260508093755 7 346 0.0 0.0 0.00 0.00 0.00 91 1017.6
20260508093724 7 346 0.0 0.0 0.00 0.00 0.00 91 1017.6
20260508093232 7 346 0.0 0.0 0.00 0.00 0.00 91 1017.5
20260508092758 8 346 0.0 0.0 0.00 0.00 0.00 90 1017.6
20260508092727 8 346 0.0 0.0 0.00 0.00 0.00 90 1017.6
20260508092313 8 346 0.0 0.0 0.00 0.00 0.00 90 1017.6
20260508091727 8 346 0.0 0.0 0.00 0.00 0.00 90 1017.5
20260508091235 8 346 0.0 0.0 0.00 0.00 0.00 90 1017.5
20260508090723 8 346 0.0 0.0 0.00 0.00 0.00 90 1017.6
20260508090311 8 346 0.0 0.0 0.00 0.00 0.00 90 1017.6
20260508090239 8 346 0.0 0.0 0.00 0.00 0.00 90 1017.6
20260508085805 8 346 0.0 0.0 0.00 0.00 0.00 90 1017.6
20260508085222 8 346 0.0 0.0 0.00 0.00 0.00 90 1017.5
20260508084730 8 346 0.0 0.0 0.00 0.00 0.00 89 1017.4
20260508084258 8 346 0.0 0.0 0.00 0.00 0.00 88 1017.5
20260508083734 8 346 0.0 0.0 0.00 0.00 0.00 88 1017.5
20260508083222 8 346 0.0 0.0 0.00 0.00 0.00 87 1017.5
20260508082808 8 346 0.0 3.2 0.00 0.00 0.00 87 1017.5
20260508082229 8 313 0.0 3.2 0.00 0.00 0.00 88 1017.5
20260508081737 9 313 0.0 0.0 0.00 0.00 0.00 89 1017.5
20260508081225 9 313 0.0 0.0 0.00 0.00 0.00 89 1017.5
20260508080733 9 313 0.0 0.0 0.00 0.00 0.00 89 1017.5
20260508080241 9 313 0.0 0.0 0.00 0.00 0.00 88 1017.5
20260508075808 9 313 0.0 0.0 0.00 0.00 0.00 88 1017.4
20260508075736 9 313 0.0 0.0 0.00 0.00 0.00 88 1017.4
20260508075224 9 313 0.0 0.0 0.00 0.00 0.00 89 1017.5
20260508074811 9 313 0.0 0.0 0.00 0.00 0.00 89 1017.5
20260508074228 9 313 0.0 0.0 0.00 0.00 0.00 89 1017.5
20260508073756 9 313 0.0 0.0 0.00 0.00 0.00 89 1017.5
20260508073232 9 313 0.0 0.0 0.00 0.00 0.00 89 1017.5
20260508072739 9 313 0.0 0.0 0.00 0.00 0.00 89 1017.5
20260508072227 9 313 0.0 0.0 0.00 0.00 0.00 89 1017.6
20260508071739 9 313 0.0 0.0 0.00 0.00 0.00 89 1017.5
20260508071227 9 313 0.0 0.0 0.00 0.00 0.00 88 1017.5
20260508070735 9 313 0.0 0.0 0.00 0.00 0.00 89 1017.5
20260508070303 9 313 0.0 0.0 0.00 0.00 0.00 89 1017.6
20260508070231 9 313 0.0 0.0 0.00 0.00 0.00 89 1017.6
20260508065735 9 313 0.0 0.0 0.00 0.00 0.00 89 1017.6
20260508065223 9 313 0.0 0.0 0.00 0.00 0.00 89 1017.7
20260508064731 8 313 0.0 0.0 0.00 0.00 0.00 88 1017.7
20260508064239 8 313 0.0 0.0 0.00 0.00 0.00 88 1017.7
20260508063727 9 313 0.0 0.0 0.00 0.00 0.00 87 1017.7
20260508063255 9 313 0.0 0.0 0.00 0.00 0.00 86 1017.6
20260508063223 9 313 0.0 0.0 0.00 0.00 0.00 86 1017.6
20260508062810 9 313 0.0 0.0 0.00 0.00 0.00 86 1017.6
20260508062738 9 313 0.0 0.0 0.00 0.00 0.00 86 1017.6
20260508062307 9 313 0.0 0.0 0.00 0.00 0.00 86 1017.6
20260508061723 9 313 0.0 0.0 0.00 0.00 0.00 86 1017.7
20260508061230 9 313 0.0 0.0 0.00 0.00 0.00 85 1017.7
20260508060722 9 313 0.0 0.0 0.00 0.00 0.00 85 1017.7
20260508060310 10 313 0.0 0.0 0.00 0.00 0.00 85 1017.7
20260508055725 10 313 0.0 0.0 0.00 0.00 0.00 84 1017.7
20260508055232 10 313 0.0 0.0 0.00 0.00 0.00 84 1017.8
20260508054740 10 313 0.0 0.0 0.00 0.00 0.00 83 1017.9
20260508054228 10 313 0.0 0.0 0.00 0.00 0.00 83 1017.9
20260508053736 10 313 0.0 0.0 0.00 0.00 0.00 83 1017.9
20260508053224 10 313 0.0 0.0 0.00 0.00 0.00 82 1018.0
20260508052731 10 313 0.0 0.0 0.00 0.00 0.00 82 1017.9
20260508052259 10 313 0.0 0.0 0.00 0.00 0.00 81 1017.7
20260508051756 11 313 0.0 0.0 0.00 0.00 0.00 81 1017.7
20260508051232 11 313 0.0 0.0 0.00 0.00 0.00 81 1017.9
20260508050724 11 313 0.0 0.0 0.00 0.00 0.00 80 1017.8
20260508050308 11 313 0.0 0.0 0.00 0.00 0.00 80 1017.9
20260508050236 11 313 0.0 0.0 0.00 0.00 0.00 80 1017.9
20260508045727 11 313 0.0 0.0 0.00 0.00 0.00 79 1017.9
20260508045235 11 313 0.0 0.0 0.00 0.00 0.00 78 1017.9
20260508044723 11 313 0.0 0.0 0.00 0.00 0.00 77 1017.9
20260508044310 11 313 0.0 0.0 0.00 0.00 0.00 77 1018.0
20260508044239 11 313 0.0 0.0 0.00 0.00 0.00 77 1018.0
20260508043727 12 313 0.0 0.0 0.00 0.00 0.00 76 1018.1
20260508043235 12 313 0.0 0.0 0.00 0.00 0.00 76 1018.1
20260508042722 12 313 0.0 0.0 0.00 0.00 0.00 75 1018.0
20260508042230 12 313 0.0 0.0 0.00 0.00 0.00 75 1018.1
20260508041738 12 313 0.0 0.0 0.00 0.00 0.00 74 1018.1
20260508041305 12 313 0.0 0.0 0.00 0.00 0.00 73 1018.1
20260508040722 12 313 0.0 0.0 0.00 0.00 0.00 73 1018.1
20260508040310 13 313 0.0 0.0 0.00 0.00 0.00 72 1018.0
20260508035729 13 313 0.0 0.0 0.00 0.00 0.00 70 1017.9
20260508035237 13 313 0.0 0.0 0.00 0.00 0.00 70 1017.8
20260508034805 13 313 0.0 0.0 0.00 0.00 0.00 69 1017.6
20260508034302 13 313 0.0 0.0 0.00 0.00 0.00 68 1017.7
20260508034230 13 313 0.0 0.0 0.00 0.00 0.00 68 1017.7
20260508033738 14 313 0.0 0.0 0.00 0.00 0.00 69 1017.8
20260508033226 14 313 0.0 0.0 0.00 0.00 0.00 67 1017.8
20260508032730 14 313 0.0 0.0 0.00 0.00 0.00 66 1018.0
20260508032238 15 313 0.0 0.0 0.00 0.00 0.00 66 1018.0
20260508031726 15 313 0.0 0.0 0.00 0.00 0.00 65 1018.0
20260508031234 15 313 0.0 0.0 0.00 0.00 0.00 64 1017.9
20260508030722 15 313 0.0 0.0 0.00 0.00 0.00 63 1017.8
20260508030230 15 313 0.0 0.0 0.00 0.00 0.00 63 1017.8
20260508025721 16 313 0.0 0.0 0.00 0.00 0.00 62 1017.8
20260508025228 16 313 0.0 0.0 0.00 0.00 0.00 62 1018.0
20260508024756 16 313 0.0 0.0 0.00 0.00 0.00 60 1018.0
20260508024232 16 313 0.0 1.6 0.00 0.00 0.00 60 1018.1
20260508023759 16 313 0.0 1.6 0.00 0.00 0.00 58 1018.1
20260508023256 17 321 0.0 3.2 0.00 0.00 0.00 57 1018.1
20260508022731 17 321 0.0 3.2 0.00 0.00 0.00 56 1018.2
20260508022239 17 321 0.0 4.8 0.00 0.00 0.00 55 1018.1
20260508021727 17 323 3.2 4.8 0.00 0.00 0.00 54 1018.2
20260508021235 17 320 0.0 3.2 0.00 0.00 0.00 54 1018.2
20260508020803 17 282 0.0 3.2 0.00 0.00 0.00 53 1018.2
20260508020731 17 282 0.0 3.2 0.00 0.00 0.00 53 1018.2
20260508020239 17 279 0.0 3.2 0.00 0.00 0.00 53 1018.3
20260508015726 17 284 0.0 3.2 0.00 0.00 0.00 54 1018.3
20260508015234 17 344 1.6 3.2 0.00 0.00 0.00 54 1018.2
20260508014726 17 327 0.0 3.2 0.00 0.00 0.00 54 1018.3
20260508014233 17 291 0.0 6.4 0.00 0.00 0.00 54 1018.4
20260508013721 17 326 3.2 6.4 0.00 0.00 0.00 54 1018.4
20260508013229 18 34 1.6 6.4 0.00 0.00 0.00 54 1018.4
20260508012736 18 38 1.6 11.3 0.00 0.00 0.00 54 1018.5
20260508012307 18 333 4.8 11.3 0.00 0.00 0.00 53 1018.4
20260508012233 18 333 4.8 11.3 0.00 0.00 0.00 53 1018.4
20260508011740 18 290 3.2 6.4 0.00 0.00 0.00 53 1018.4
20260508011228 18 223 1.6 4.8 0.00 0.00 0.00 53 1018.5
20260508010756 18 252 1.6 4.8 0.00 0.00 0.00 54 1018.7
20260508010312 18 332 1.6 8.0 0.00 0.00 0.00 53 1018.8
20260508005808 18 5 1.6 8.0 0.00 0.00 0.00 53 1018.9
20260508005224 18 338 1.6 4.8 0.00 0.00 0.00 54 1019.0
20260508004732 18 22 1.6 6.4 0.00 0.00 0.00 53 1018.9
20260508004300 18 313 1.6 6.4 0.00 0.00 0.00 52 1018.9
20260508003757 18 329 1.6 9.7 0.00 0.00 0.00 53 1019.0
20260508003233 18 273 3.2 11.3 0.00 0.00 0.00 53 1019.1
20260508002724 18 299 1.6 4.8 0.00 0.00 0.00 52 1019.1
20260508002232 18 346 1.6 6.4 0.00 0.00 0.00 52 1019.1
20260508001740 18 355 3.2 8.0 0.00 0.00 0.00 53 1019.0
20260508001228 18 348 1.6 8.0 0.00 0.00 0.00 52 1019.0
20260508000736 18 252 1.6 8.0 0.00 0.00 0.00 52 1019.0
20260508000224 18 335 3.2 8.0 0.00 0.00 0.00 52 1019.1
20260507235731 18 299 1.6 8.0 0.00 0.00 0.00 53 1019.1
20260507235239 18 281 3.2 8.0 0.00 0.00 0.00 52 1019.1
20260507234727 18 281 3.2 6.4 0.00 0.00 0.00 52 1019.1
20260507234239 18 146 1.6 8.0 0.00 0.00 0.00 52 1019.1
20260507233727 18 44 4.8 6.4 0.00 0.00 0.00 52 1019.1
20260507233235 18 319 3.2 6.4 0.00 0.00 0.00 50 1019.2
20260507232722 18 324 1.6 4.8 0.00 0.00 0.00 52 1019.2
20260507232310 18 296 1.6 9.7 0.00 0.00 0.00 52 1019.2
20260507231806 18 261 4.8 9.7 0.00 0.00 0.00 53 1019.2
20260507231223 18 271 0.0 6.4 0.00 0.00 0.00 53 1019.3
20260507230811 18 205 1.6 6.4 0.00 0.00 0.00 52 1019.4
20260507230308 18 92 0.0 4.8 0.00 0.00 0.00 52 1019.5
20260507225723 18 9 1.6 4.8 0.00 0.00 0.00 53 1019.5
20260507225311 18 355 3.2 4.8 0.00 0.00 0.00 52 1019.5
20260507224727 18 333 1.6 9.7 0.00 0.00 0.00 53 1019.7
20260507224255 17 307 3.2 9.7 0.00 0.00 0.00 53 1019.6
20260507224223 17 307 3.2 9.7 0.00 0.00 0.00 53 1019.6
20260507223731 18 231 1.6 11.3 0.00 0.00 0.00 53 1019.6
20260507223239 18 261 3.2 11.3 0.00 0.00 0.00 54 1019.5
20260507222806 18 148 1.6 4.8 0.00 0.00 0.00 53 1019.7
20260507222734 18 148 1.6 4.8 0.00 0.00 0.00 53 1019.7
20260507222222 17 50 1.6 6.4 0.00 0.00 0.00 55 1019.7
20260507221734 17 55 1.6 6.4 0.00 0.00 0.00 55 1019.8
20260507221222 17 171 1.6 4.8 0.00 0.00 0.00 58 1019.9
20260507220810 16 320 0.0 6.4 0.00 0.00 0.00 58 1019.8